When you browse on this site, cookies collect data to enhance your experience and personalize the content and advertising you see.
Visit our Privacy Policy to learn more. By continuing to use the site, you agree to this use of cookies and data.
  • In Hungary
  • List of Countries
  • For 7 days
  • Water Temperature
  • Satellite Maps
  • Weather Map
  • News
  • Weather Widgets
  • user-avatar
    Login

    Hourly Weather Andover

    Today, 18 June, Tuesday

    Time Temperature Precipitation Wind Pressure Humidity
    00:00 +15°C° 0 mm 1 mps 736 mmHg 80%
    01:00 +14°C° 0 mm 2 mps 736 mmHg 83%
    02:00 +14°C° 0 mm 2 mps 736 mmHg 86%
    03:00 +13°C° 0 mm 2 mps 736 mmHg 89%
    04:00 +13°C° 0 mm 2 mps 736 mmHg 88%
    05:00 +13°C° 0 mm 2 mps 736 mmHg 88%
    06:00 +14°C° 0 mm 1 mps 736 mmHg 87%
    07:00 +16°C° 0 mm 2 mps 736 mmHg 81%
    08:00 +17°C° 0 mm 2 mps 736 mmHg 74%
    09:00 +19°C° 0 mm 2 mps 736 mmHg 68%
    10:00 +20°C° 0.1 mm 2 mps 736 mmHg 66%
    11:00 +21°C° 0.1 mm 2 mps 736 mmHg 63%
    12:00 +23°C° 0.1 mm 2 mps 736 mmHg 61%
    13:00 +22°C° 0.1 mm 3 mps 736 mmHg 62%
    14:00 +22°C° 0.1 mm 3 mps 735 mmHg 63%
    15:00 +22°C° 0.1 mm 3 mps 735 mmHg 63%
    16:00 +21°C° 0.1 mm 3 mps 735 mmHg 67%
    17:00 +21°C° 0.1 mm 2 mps 735 mmHg 71%
    18:00 +20°C° 0.1 mm 2 mps 734 mmHg 76%
    19:00 +19°C° 0 mm 2 mps 734 mmHg 79%
    20:00 +18°C° 0 mm 2 mps 734 mmHg 83%
    21:00 +16°C° 0 mm 1 mps 735 mmHg 86%
    22:00 +16°C° 0 mm 2 mps 734 mmHg 88%
    23:00 +15°C° 0 mm 2 mps 734 mmHg 89%

    Tomorrow, 19 June, Wednesday

    Time Temperature Precipitation Wind Pressure Humidity
    00:00 +14°C° 0 mm 2 mps 734 mmHg 90%
    01:00 +13°C° 0 mm 2 mps 734 mmHg 91%
    02:00 +13°C° 0 mm 2 mps 734 mmHg 91%
    03:00 +12°C° 0 mm 2 mps 734 mmHg 91%
    04:00 +12°C° 0 mm 2 mps 734 mmHg 89%
    05:00 +12°C° 0 mm 2 mps 734 mmHg 88%
    06:00 +13°C° 0 mm 2 mps 734 mmHg 86%
    07:00 +14°C° 0 mm 2 mps 734 mmHg 79%
    08:00 +16°C° 0 mm 2 mps 734 mmHg 73%
    09:00 +18°C° 0 mm 2 mps 734 mmHg 66%
    10:00 +19°C° 0 mm 3 mps 734 mmHg 62%
    11:00 +21°C° 0 mm 3 mps 733 mmHg 59%
    12:00 +22°C° 0 mm 3 mps 733 mmHg 55%
    13:00 +22°C° 0 mm 3 mps 732 mmHg 54%
    14:00 +24°C° 0 mm 3 mps 732 mmHg 53%
    15:00 +24°C° 0 mm 3 mps 732 mmHg 52%
    16:00 +24°C° 0 mm 2 mps 731 mmHg 56%
    17:00 +23°C° 0 mm 2 mps 731 mmHg 60%
    18:00 +23°C° 0 mm 2 mps 731 mmHg 63%
    19:00 +20°C° 0 mm 2 mps 731 mmHg 66%
    20:00 +18°C° 0 mm 2 mps 731 mmHg 68%
    21:00 +17°C° 0 mm 2 mps 731 mmHg 71%
    22:00 +16°C° 0 mm 2 mps 731 mmHg 73%
    23:00 +15°C° 0 mm 2 mps 731 mmHg 76%

    Day after tomorrow, 20 June, Thursday

    Time Temperature Precipitation Wind Pressure Humidity
    00:00 +15°C° 0 mm 2 mps 730 mmHg 79%
    01:00 +14°C° 0 mm 2 mps 730 mmHg 82%
    02:00 +14°C° 0 mm 2 mps 730 mmHg 84%
    03:00 +14°C° 0 mm 2 mps 731 mmHg 87%
    04:00 +14°C° 0 mm 2 mps 731 mmHg 86%
    05:00 +14°C° 0 mm 2 mps 731 mmHg 86%
    06:00 +14°C° 0 mm 3 mps 731 mmHg 85%
    07:00 +17°C° 0 mm 3 mps 731 mmHg 80%
    08:00 +19°C° 0 mm 3 mps 731 mmHg 75%
    09:00 +21°C° 0 mm 3 mps 731 mmHg 70%
    10:00 +21°C° 0.1 mm 3 mps 731 mmHg 68%
    11:00 +22°C° 0.1 mm 3 mps 731 mmHg 67%
    12:00 +24°C° 0.1 mm 3 mps 731 mmHg 65%
    13:00 +22°C° 1.4 mm 3 mps 731 mmHg 72%
    14:00 +21°C° 1.4 mm 3 mps 731 mmHg 79%
    15:00 +19°C° 1.4 mm 2 mps 731 mmHg 85%
    16:00 +19°C° 0.5 mm 2 mps 732 mmHg 86%
    17:00 +19°C° 0.5 mm 2 mps 732 mmHg 87%
    18:00 +18°C° 0.5 mm 2 mps 732 mmHg 88%
    19:00 +18°C° 0 mm 2 mps 732 mmHg 89%
    20:00 +17°C° 0 mm 2 mps 732 mmHg 90%
    21:00 +17°C° 0 mm 3 mps 733 mmHg 91%
    22:00 +17°C° 0 mm 2 mps 733 mmHg 90%
    23:00 +16°C° 0 mm 2 mps 733 mmHg 90%

    21 June, Friday

    Time Temperature Precipitation Wind Pressure Humidity
    00:00 +16°C° 0 mm 2 mps 733 mmHg 89%
    01:00 +16°C° 0 mm 2 mps 733 mmHg 90%
    02:00 +16°C° 0 mm 3 mps 733 mmHg 91%
    03:00 +16°C° 0 mm 3 mps 733 mmHg 91%
    04:00 +16°C° 0 mm 3 mps 733 mmHg 91%
    05:00 +15°C° 0 mm 4 mps 733 mmHg 90%
    06:00 +17°C° 0 mm 4 mps 734 mmHg 89%
    07:00 +18°C° 0.5 mm 4 mps 734 mmHg 88%
    08:00 +19°C° 0.5 mm 5 mps 734 mmHg 87%
    09:00 +20°C° 0.5 mm 5 mps 734 mmHg 85%
    10:00 +20°C° 0.6 mm 5 mps 734 mmHg 88%
    11:00 +19°C° 0.6 mm 5 mps 733 mmHg 90%
    12:00 +19°C° 0.6 mm 5 mps 733 mmHg 92%
    13:00 +20°C° 0 mm 5 mps 733 mmHg 88%
    14:00 +22°C° 0 mm 6 mps 733 mmHg 83%
    15:00 +23°C° 0 mm 6 mps 733 mmHg 78%
    16:00 +23°C° 0.1 mm 6 mps 733 mmHg 79%
    17:00 +23°C° 0.1 mm 5 mps 733 mmHg 80%
    18:00 +23°C° 0.1 mm 5 mps 733 mmHg 80%
    19:00 +22°C° 0.1 mm 5 mps 733 mmHg 82%
    20:00 +22°C° 0.1 mm 5 mps 733 mmHg 84%
    21:00 +21°C° 0.1 mm 5 mps 733 mmHg 86%
    22:00 +20°C° 0.3 mm 5 mps 733 mmHg 87%
    23:00 +20°C° 0.3 mm 5 mps 732 mmHg 89%

    22 June, Saturday

    Time Temperature Precipitation Wind Pressure Humidity
    00:00 +19°C° 0.3 mm 5 mps 732 mmHg 91%
    01:00 +19°C° 1.3 mm 5 mps 732 mmHg 92%
    02:00 +19°C° 1.3 mm 4 mps 732 mmHg 93%
    03:00 +19°C° 1.3 mm 3 mps 731 mmHg 94%
    04:00 +18°C° 0.8 mm 3 mps 732 mmHg 94%
    05:00 +18°C° 0.8 mm 3 mps 732 mmHg 95%
    06:00 +18°C° 0.8 mm 3 mps 732 mmHg 95%
    07:00 +19°C° 0.3 mm 3 mps 732 mmHg 93%
    08:00 +20°C° 0.3 mm 3 mps 732 mmHg 92%
    09:00 +21°C° 0.3 mm 4 mps 732 mmHg 90%
    10:00 +22°C° 0.1 mm 3 mps 732 mmHg 90%
    11:00 +22°C° 0.1 mm 3 mps 732 mmHg 90%
    12:00 +24°C° 0.1 mm 3 mps 732 mmHg 90%
    13:00 +22°C° 2.6 mm 3 mps 731 mmHg 92%
    14:00 +23°C° 2.6 mm 2 mps 731 mmHg 95%
    15:00 +23°C° 2.6 mm 2 mps 730 mmHg 97%
    16:00 +23°C° 2.6 mm 2 mps 730 mmHg 96%
    17:00 +22°C° 2.6 mm 3 mps 730 mmHg 95%
    18:00 +22°C° 2.6 mm 3 mps 730 mmHg 95%
    19:00 +21°C° 0.2 mm 3 mps 731 mmHg 95%
    20:00 +20°C° 0.2 mm 4 mps 731 mmHg 95%
    21:00 +19°C° 0.2 mm 4 mps 731 mmHg 94%
    22:00 +17°C° 0 mm 3 mps 731 mmHg 93%
    23:00 +16°C° 0 mm 3 mps 731 mmHg 91%

    23 June, Sunday

    Time Temperature Precipitation Wind Pressure Humidity
    00:00 +15°C° 0 mm 2 mps 731 mmHg 89%
    01:00 +15°C° 0 mm 2 mps 731 mmHg 88%
    02:00 +14°C° 0 mm 2 mps 731 mmHg 86%
    03:00 +14°C° 0 mm 1 mps 732 mmHg 84%
    04:00 +14°C° 0 mm 1 mps 732 mmHg 83%
    05:00 +15°C° 0 mm 1 mps 732 mmHg 82%
    06:00 +15°C° 0 mm 1 mps 732 mmHg 81%
    07:00 +17°C° 0 mm 2 mps 732 mmHg 78%
    08:00 +20°C° 0 mm 2 mps 732 mmHg 74%
    09:00 +23°C° 0 mm 2 mps 732 mmHg 70%
    10:00 +24°C° 0 mm 2 mps 732 mmHg 65%
    11:00 +26°C° 0 mm 3 mps 732 mmHg 60%
    12:00 +27°C° 0 mm 3 mps 732 mmHg 55%
    13:00 +28°C° 0 mm 3 mps 731 mmHg 54%
    14:00 +28°C° 0 mm 3 mps 731 mmHg 53%
    15:00 +28°C° 0 mm 3 mps 731 mmHg 53%
    16:00 +28°C° 0.1 mm 3 mps 730 mmHg 57%
    17:00 +27°C° 0.1 mm 2 mps 730 mmHg 62%
    18:00 +27°C° 0.1 mm 1 mps 730 mmHg 67%
    19:00 +25°C° 0.1 mm 1 mps 730 mmHg 70%
    20:00 +23°C° 0.1 mm 1 mps 730 mmHg 73%
    21:00 +19°C° 0.1 mm 0 mps 730 mmHg 76%
    22:00 +21°C° 0 mm 1 mps 729 mmHg 77%
    23:00 +20°C° 0 mm 1 mps 729 mmHg 79%
    Show more